Time,TemperatureF,DewpointF,PressureIn,WindDirection,WindDirectionDegrees,WindSpeedMPH,WindSpeedGustMPH,Humidity,HourlyPrecipIn,Conditions,Clouds,dailyrainin,SolarRadiationWatts/m^2,SoftwareType,DateUTC
2017-02-19 00:03:00,63.0,39.6,29.77,SW,230,9.0,9.0,42,0.00,,---,0.00,0.00,VWS V14.01,2017-02-19 05:03:00,
2017-02-19 00:08:00,63.1,40.3,29.77,SW,220,6.0,12.0,43,0.00,,---,0.00,0.00,VWS V14.01,2017-02-19 05:08:00,
2017-02-19 00:13:00,63.4,40.5,29.77,West,281,6.0,12.0,43,0.00,,---,0.00,0.00,VWS V14.01,2017-02-19 05:13:00,
2017-02-19 00:18:00,63.5,40.6,29.77,SW,223,4.0,12.0,43,0.00,,---,0.00,0.00,VWS V14.01,2017-02-19 05:18:00,
2017-02-19 00:23:00,63.6,40.7,29.78,West,263,5.0,13.0,43,0.00,,---,0.00,0.00,VWS V14.01,2017-02-19 05:23:00,
2017-02-19 00:28:00,63.6,40.7,29.78,SW,232,4.0,13.0,43,0.00,,---,0.00,0.00,VWS V14.01,2017-02-19 05:28:00,
2017-02-19 00:33:00,63.7,40.8,29.78,SW,217,3.0,10.0,43,0.00,,---,0.00,0.00,VWS V14.01,2017-02-19 05:33:00,
2017-02-19 00:38:00,63.7,40.2,29.78,WSW,256,4.0,10.0,42,0.00,,---,0.00,0.00,VWS V14.01,2017-02-19 05:38:00,
2017-02-19 00:43:00,63.7,40.2,29.78,WSW,245,4.0,10.0,42,0.00,,---,0.00,0.00,VWS V14.01,2017-02-19 05:43:00,
2017-02-19 00:58:00,63.6,40.7,29.78,SW,236,3.0,10.0,43,0.00,,---,0.00,0.00,VWS V14.01,2017-02-19 05:58:00,
2017-02-19 01:03:00,63.6,40.7,29.78,WSW,254,3.0,7.0,43,0.00,,---,0.00,0.00,VWS V14.01,2017-02-19 06:03:00,
2017-02-19 01:08:00,63.5,40.6,29.78,West,267,3.0,7.0,43,0.00,,---,0.00,0.00,VWS V14.01,2017-02-19 06:08:00,
2017-02-19 01:13:00,63.2,40.3,29.78,West,276,3.0,7.0,43,0.00,,---,0.00,0.00,VWS V14.01,2017-02-19 06:13:00,
2017-02-19 01:19:00,62.9,40.7,29.78,WSW,253,2.0,7.0,44,0.00,,---,0.00,0.00,VWS V14.01,2017-02-19 06:19:00,
2017-02-19 01:24:00,62.7,41.1,29.78,West,264,4.0,7.0,45,0.00,,---,0.00,0.00,VWS V14.01,2017-02-19 06:24:00,
2017-02-19 01:29:00,62.3,40.7,29.77,WSW,256,5.0,8.0,45,0.00,,---,0.00,0.00,VWS V14.01,2017-02-19 06:29:00,
2017-02-19 01:39:00,62.1,41.1,29.77,West,278,4.0,9.0,46,0.00,,---,0.00,0.00,VWS V14.01,2017-02-19 06:39:00,
2017-02-19 01:44:00,62.2,42.3,29.77,West,275,6.0,12.0,48,0.00,,---,0.00,0.00,VWS V14.01,2017-02-19 06:44:00,
2017-02-19 01:49:00,62.6,43.7,29.77,West,263,8.0,12.0,50,0.00,,---,0.00,0.00,VWS V14.01,2017-02-19 06:49:00,
2017-02-19 01:54:00,62.9,44.0,29.78,WSW,255,6.0,12.0,50,0.00,,---,0.00,0.00,VWS V14.01,2017-02-19 06:54:00,
2017-02-19 01:59:00,63.1,43.7,29.78,West,260,4.0,12.0,49,0.00,,---,0.00,0.00,VWS V14.01,2017-02-19 06:59:00,
2017-02-19 02:04:00,63.2,44.3,29.78,WSW,240,2.0,9.0,50,0.00,,---,0.00,0.00,VWS V14.01,2017-02-19 07:04:00,
2017-02-19 02:09:00,63.2,44.3,29.78,West,266,7.0,9.0,50,0.00,,---,0.00,0.00,VWS V14.01,2017-02-19 07:09:00,
2017-02-19 02:14:00,63.1,44.2,29.78,WSW,258,7.0,9.0,50,0.00,,---,0.00,0.00,VWS V14.01,2017-02-19 07:14:00,
2017-02-19 02:19:00,63.0,44.1,29.78,NW,317,6.0,12.0,50,0.00,,---,0.00,0.00,VWS V14.01,2017-02-19 07:19:00,
2017-02-19 02:24:00,63.2,44.3,29.78,West,273,7.0,16.0,50,0.00,,---,0.00,0.00,VWS V14.01,2017-02-19 07:24:00,
2017-02-19 02:29:00,63.2,44.3,29.78,West,259,7.0,17.0,50,0.00,,---,0.00,0.00,VWS V14.01,2017-02-19 07:29:00,
2017-02-19 02:34:00,63.2,44.3,29.78,WSW,255,13.0,23.0,50,0.00,,---,0.00,0.00,VWS V14.01,2017-02-19 07:34:00,
2017-02-19 02:39:00,63.2,44.3,29.78,West,279,11.0,23.0,50,0.00,,---,0.00,0.00,VWS V14.01,2017-02-19 07:39:00,
2017-02-19 02:44:00,63.1,44.2,29.78,WSW,252,8.0,23.0,50,0.00,,---,0.00,0.00,VWS V14.01,2017-02-19 07:44:00,
2017-02-19 02:49:00,62.9,44.5,29.78,West,264,15.0,23.0,51,0.00,,---,0.00,0.00,VWS V14.01,2017-02-19 07:49:00,
2017-02-19 02:54:00,62.6,45.2,29.78,West,270,4.0,23.0,53,0.00,,---,0.00,0.00,VWS V14.01,2017-02-19 07:54:00,
2017-02-19 02:59:00,62.3,46.0,29.78,SSW,209,14.0,23.0,55,0.00,,---,0.00,0.00,VWS V14.01,2017-02-19 07:59:00,
2017-02-19 03:04:00,62.0,46.1,29.79,West,267,17.0,19.0,56,0.00,,---,0.00,0.00,VWS V14.01,2017-02-19 08:04:00,
2017-02-19 03:09:00,61.6,46.7,29.78,West,266,12.0,25.0,58,0.00,,---,0.00,0.00,VWS V14.01,2017-02-19 08:09:00,
2017-02-19 03:14:00,61.5,47.5,29.78,NW,310,18.0,25.0,60,0.00,,---,0.00,0.00,VWS V14.01,2017-02-19 08:14:00,
2017-02-19 03:24:00,60.7,47.6,29.78,WSW,258,13.0,25.0,62,0.00,,---,0.00,0.00,VWS V14.01,2017-02-19 08:24:00,
2017-02-19 03:29:00,60.4,47.3,29.78,SW,219,13.0,27.0,62,0.00,,---,0.00,0.00,VWS V14.01,2017-02-19 08:29:00,
2017-02-19 03:34:00,60.2,47.2,29.77,West,271,18.0,24.0,62,0.00,,---,0.00,0.00,VWS V14.01,2017-02-19 08:34:00,
2017-02-19 03:39:00,60.1,46.6,29.78,WNW,285,17.0,24.0,61,0.00,,---,0.00,0.00,VWS V14.01,2017-02-19 08:39:00,
2017-02-19 03:44:00,60.1,46.6,29.78,West,263,17.0,24.0,61,0.00,,---,0.00,0.00,VWS V14.01,2017-02-19 08:44:00,
2017-02-19 03:49:00,60.0,46.5,29.79,WNW,295,14.0,24.0,61,0.00,,---,0.00,0.00,VWS V14.01,2017-02-19 08:49:00,
2017-02-19 03:54:00,60.0,46.5,29.79,WNW,290,9.0,27.0,61,0.00,,---,0.00,0.00,VWS V14.01,2017-02-19 08:54:00,
2017-02-19 03:59:00,59.9,46.4,29.79,NW,313,11.0,27.0,61,0.00,,---,0.00,0.00,VWS V14.01,2017-02-19 08:59:00,
2017-02-19 04:04:00,59.8,46.8,29.79,West,277,22.0,25.0,62,0.00,,---,0.00,0.00,VWS V14.01,2017-02-19 09:04:00,
2017-02-19 04:09:00,59.6,46.6,29.79,WNW,301,11.0,27.0,62,0.00,,---,0.00,0.00,VWS V14.01,2017-02-19 09:09:00,
2017-02-19 04:19:00,59.2,46.6,29.79,WSW,248,24.0,27.0,63,0.00,,---,0.00,0.00,VWS V14.01,2017-02-19 09:19:00,
2017-02-19 04:29:00,59.2,46.2,29.80,WSW,250,11.0,27.0,62,0.00,,---,0.00,0.00,VWS V14.01,2017-02-19 09:29:00,
2017-02-19 04:35:00,59.2,46.2,29.80,West,269,10.0,17.0,62,0.00,,---,0.00,0.00,VWS V14.01,2017-02-19 09:35:00,
2017-02-19 04:40:00,59.1,46.1,29.80,WSW,251,20.0,20.0,62,0.00,,---,0.00,0.00,VWS V14.01,2017-02-19 09:40:00,
2017-02-19 04:45:00,59.0,46.0,29.80,WSW,258,18.0,20.0,62,0.00,,---,0.00,0.00,VWS V14.01,2017-02-19 09:45:00,
2017-02-19 04:50:00,59.1,45.7,29.80,West,269,12.0,24.0,61,0.00,,---,0.00,0.00,VWS V14.01,2017-02-19 09:50:00,
2017-02-19 04:55:00,59.0,45.6,29.80,WSW,248,14.0,24.0,61,0.00,,---,0.00,0.00,VWS V14.01,2017-02-19 09:55:00,
2017-02-19 05:00:00,59.0,45.6,29.80,WNW,296,10.0,24.0,61,0.00,,---,0.00,0.00,VWS V14.01,2017-02-19 10:00:00,
2017-02-19 05:05:00,58.9,45.5,29.80,WNW,295,6.0,18.0,61,0.00,,---,0.00,0.00,VWS V14.01,2017-02-19 10:05:00,
2017-02-19 05:10:00,58.8,45.4,29.80,WNW,286,15.0,18.0,61,0.00,,---,0.00,0.00,VWS V14.01,2017-02-19 10:10:00,
2017-02-19 05:15:00,58.7,45.3,29.81,West,277,5.0,18.0,61,0.00,,---,0.00,0.00,VWS V14.01,2017-02-19 10:15:00,
2017-02-19 05:20:00,58.7,45.3,29.81,West,261,9.0,21.0,61,0.00,,---,0.00,0.00,VWS V14.01,2017-02-19 10:20:00,
2017-02-19 05:25:00,58.7,45.3,29.81,NW,315,4.0,21.0,61,0.00,,---,0.00,0.00,VWS V14.01,2017-02-19 10:25:00,
2017-02-19 05:30:00,58.6,45.2,29.82,West,279,6.0,21.0,61,0.00,,---,0.00,0.00,VWS V14.01,2017-02-19 10:30:00,
2017-02-19 05:35:00,58.6,45.2,29.82,WNW,290,8.0,14.0,61,0.00,,---,0.00,0.00,VWS V14.01,2017-02-19 10:35:00,
2017-02-19 05:40:00,58.5,45.1,29.82,NW,312,10.0,15.0,61,0.00,,---,0.00,0.00,VWS V14.01,2017-02-19 10:40:00,
2017-02-19 05:45:00,58.4,45.0,29.83,WNW,290,8.0,15.0,61,0.00,,---,0.00,0.00,VWS V14.01,2017-02-19 10:45:00,
2017-02-19 05:50:00,58.4,45.0,29.83,NW,323,7.0,15.0,61,0.00,,---,0.00,0.00,VWS V14.01,2017-02-19 10:50:00,
2017-02-19 05:55:00,58.3,44.9,29.83,West,267,9.0,19.0,61,0.00,,---,0.00,0.00,VWS V14.01,2017-02-19 10:55:00,
2017-02-19 06:00:00,58.3,44.9,29.83,West,270,9.0,19.0,61,0.00,,---,0.00,0.00,VWS V14.01,2017-02-19 11:00:00,
2017-02-19 06:05:00,58.3,44.9,29.83,WSW,243,9.0,18.0,61,0.00,,---,0.00,0.00,VWS V14.01,2017-02-19 11:05:00,
2017-02-19 06:10:00,58.2,44.8,29.84,WNW,295,4.0,18.0,61,0.00,,---,0.00,0.00,VWS V14.01,2017-02-19 11:10:00,
2017-02-19 06:15:00,58.2,44.8,29.84,WNW,298,6.0,18.0,61,0.00,,---,0.00,0.00,VWS V14.01,2017-02-19 11:15:00,
2017-02-19 06:20:00,58.1,45.2,29.84,WNW,284,6.0,18.0,62,0.00,,---,0.00,0.00,VWS V14.01,2017-02-19 11:20:00,
2017-02-19 06:25:00,58.1,45.2,29.84,NW,308,5.0,18.0,62,0.00,,---,0.00,0.00,VWS V14.01,2017-02-19 11:25:00,
2017-02-19 06:30:00,58.0,45.1,29.84,North,11,6.0,18.0,62,0.00,,---,0.00,0.00,VWS V14.01,2017-02-19 11:30:00,
2017-02-19 06:35:00,58.0,45.1,29.85,West,265,6.0,9.0,62,0.00,,---,0.00,0.00,VWS V14.01,2017-02-19 11:35:00,
2017-02-19 06:40:00,58.0,45.1,29.85,West,268,2.0,9.0,62,0.00,,---,0.00,0.00,VWS V14.01,2017-02-19 11:40:00,
2017-02-19 06:45:00,57.9,45.0,29.85,NW,309,5.0,13.0,62,0.00,,---,0.00,0.00,VWS V14.01,2017-02-19 11:45:00,
2017-02-19 06:55:00,57.8,45.3,29.85,WSW,257,3.0,17.0,63,0.00,,---,0.00,0.00,VWS V14.01,2017-02-19 11:55:00,
2017-02-19 07:00:00,57.7,45.2,29.85,West,271,7.0,17.0,63,0.00,,---,0.00,0.00,VWS V14.01,2017-02-19 12:00:00,
2017-02-19 07:05:00,57.6,45.1,29.86,West,279,5.0,10.0,63,0.00,,---,0.00,0.00,VWS V14.01,2017-02-19 12:05:00,
2017-02-19 07:10:00,57.6,45.1,29.86,WSW,248,2.0,10.0,63,0.00,,---,0.00,0.00,VWS V14.01,2017-02-19 12:10:00,
2017-02-19 07:15:00,57.5,45.4,29.86,WNW,298,4.0,10.0,64,0.00,,---,0.00,5.00,VWS V14.01,2017-02-19 12:15:00,
2017-02-19 07:20:00,57.4,45.3,29.86,West,264,2.0,10.0,64,0.00,,---,0.00,9.00,VWS V14.01,2017-02-19 12:20:00,
2017-02-19 07:25:00,57.4,45.3,29.87,West,261,3.0,10.0,64,0.00,,---,0.00,11.00,VWS V14.01,2017-02-19 12:25:00,
2017-02-19 07:30:00,57.3,45.2,29.86,WSW,247,9.0,11.0,64,0.00,,---,0.00,18.00,VWS V14.01,2017-02-19 12:30:00,
2017-02-19 07:36:00,57.2,45.6,29.87,West,271,7.0,10.0,65,0.00,,---,0.00,28.00,VWS V14.01,2017-02-19 12:36:00,
2017-02-19 07:41:00,57.1,45.5,29.86,West,261,10.0,14.0,65,0.00,,---,0.00,35.00,VWS V14.01,2017-02-19 12:41:00,
2017-02-19 07:46:00,57.1,45.5,29.87,West,275,6.0,14.0,65,0.00,,---,0.00,35.00,VWS V14.01,2017-02-19 12:46:00,
2017-02-19 07:51:00,57.0,45.4,29.87,West,271,3.0,14.0,65,0.00,,---,0.00,33.00,VWS V14.01,2017-02-19 12:51:00,
2017-02-19 07:56:00,56.9,45.3,29.88,West,263,6.0,14.0,65,0.00,,---,0.00,32.00,VWS V14.01,2017-02-19 12:56:00,
2017-02-19 08:01:00,56.9,45.7,29.88,West,269,7.0,7.0,66,0.00,,---,0.00,32.00,VWS V14.01,2017-02-19 13:01:00,
2017-02-19 08:06:00,56.8,45.6,29.88,West,279,9.0,12.0,66,0.00,,---,0.00,32.00,VWS V14.01,2017-02-19 13:06:00,
2017-02-19 08:11:00,56.8,45.6,29.88,WSW,243,6.0,12.0,66,0.00,,---,0.00,33.00,VWS V14.01,2017-02-19 13:11:00,
2017-02-19 08:16:00,56.7,45.5,29.88,WSW,250,5.0,12.0,66,0.00,,---,0.00,42.00,VWS V14.01,2017-02-19 13:16:00,
2017-02-19 08:21:00,56.8,45.6,29.88,WSW,254,5.0,12.0,66,0.00,,---,0.00,56.00,VWS V14.01,2017-02-19 13:21:00,
2017-02-19 08:26:00,56.8,45.6,29.89,WSW,239,6.0,12.0,66,0.00,,---,0.00,58.00,VWS V14.01,2017-02-19 13:26:00,
2017-02-19 08:31:00,56.8,45.6,29.89,WNW,297,3.0,5.0,66,0.00,,---,0.00,63.00,VWS V14.01,2017-02-19 13:31:00,
2017-02-19 08:36:00,56.8,45.6,29.89,West,265,1.0,11.0,66,0.00,,---,0.00,67.00,VWS V14.01,2017-02-19 13:36:00,
2017-02-19 08:41:00,56.9,45.7,29.89,WSW,245,6.0,11.0,66,0.00,,---,0.00,69.00,VWS V14.01,2017-02-19 13:41:00,
2017-02-19 08:46:00,56.9,45.7,29.90,West,273,3.0,12.0,66,0.00,,---,0.00,69.00,VWS V14.01,2017-02-19 13:46:00,
2017-02-19 08:51:00,56.9,45.7,29.90,WSW,254,3.0,12.0,66,0.00,,---,0.00,70.00,VWS V14.01,2017-02-19 13:51:00,
2017-02-19 08:56:00,56.9,45.7,29.90,West,267,5.0,12.0,66,0.00,,---,0.00,77.00,VWS V14.01,2017-02-19 13:56:00,
2017-02-19 09:01:00,56.9,45.7,29.90,WSW,255,7.0,8.0,66,0.00,,---,0.00,95.00,VWS V14.01,2017-02-19 14:01:00,
2017-02-19 09:06:00,56.9,45.7,29.90,NW,312,6.0,8.0,66,0.00,,---,0.00,121.00,VWS V14.01,2017-02-19 14:06:00,
2017-02-19 09:11:00,57.0,46.2,29.90,WSW,246,8.0,9.0,67,0.00,,---,0.00,158.00,VWS V14.01,2017-02-19 14:11:00,
2017-02-19 09:16:00,57.1,46.3,29.90,West,272,4.0,9.0,67,0.00,,---,0.00,176.00,VWS V14.01,2017-02-19 14:16:00,
2017-02-19 09:21:00,57.3,46.0,29.90,SW,227,11.0,11.0,66,0.00,,---,0.00,174.00,VWS V14.01,2017-02-19 14:21:00,
2017-02-19 09:26:00,57.4,46.2,29.91,West,263,6.0,13.0,66,0.00,,---,0.00,141.00,VWS V14.01,2017-02-19 14:26:00,
2017-02-19 09:27:00,57.4,46.2,29.91,West,261,9.0,13.0,66,0.00,,---,0.00,141.00,VWS V14.01,2017-02-19 14:27:00,
2017-02-19 09:32:00,57.4,46.2,29.91,NW,314,5.0,8.0,66,0.00,,---,0.00,130.00,VWS V14.01,2017-02-19 14:32:00,
2017-02-19 09:37:00,57.4,46.2,29.91,WSW,241,5.0,10.0,66,0.00,,---,0.00,83.00,VWS V14.01,2017-02-19 14:37:00,
2017-02-19 09:42:00,57.2,46.0,29.91,WNW,287,5.0,14.0,66,0.00,,---,0.00,83.00,VWS V14.01,2017-02-19 14:42:00,
2017-02-19 09:47:00,57.5,46.6,29.91,SW,223,8.0,16.0,67,0.00,,---,0.00,445.00,VWS V14.01,2017-02-19 14:47:00,
2017-02-19 09:52:00,58.1,46.4,29.91,West,260,6.0,16.0,65,0.00,,---,0.00,461.00,VWS V14.01,2017-02-19 14:52:00,
2017-02-19 09:57:00,58.6,46.9,29.91,WSW,255,4.0,16.0,65,0.00,,---,0.00,471.00,VWS V14.01,2017-02-19 14:57:00,